Orbital Elements at Epoch 2458923.5 (2020-Mar-15.0) TDB
Reference: JPL 1 (heliocentric ecliptic J2000)
Element | Value | Uncertainty (1-sigma) | Units |
e | .4175614445613319 | 0.001713 | |
a | 1.77254581289875 | 0.0053967 | au |
q | 1.032399022713608 | 0.00010954 | au |
i | 2.563752375210283 | 0.0082559 | deg |
node | 356.7725089871574 | 0.00011504 | deg |
peri | 194.5189682438822 | 0.027791 | deg |
M | 353.6439315418488 | 0.022795 | deg |
tp | 2458938.718810006500 (2020-Mar-30.21881001) | 0.020149 | TDB |
period | 861.9749202533957 2.36 | 3.9365 0.01078 | d yr |
n | .4176455620010039 | 0.0019073 | deg/d |
Q | 2.512692603083893 | 0.0076501 | au |
|
| | Orbit Determination Parameters
Additional Information
|